JAL585 RJTT-RJCH

Flight info

Callsign JAL585
Flight time 1h 10m
Altitude 41000
Route BRUCE AGRIS Y11 YTE Y113 TAXIR
Aircraft A359/H-SDE2E3GHIJ3J4J5LM1ORWXY/LB1D1

Departure

Time 2026-04-24 20:48
Airport Tokyo Haneda International Airport (RJTT)

Arrival

Time 2026-04-24 21:58
Airport Hakodate Airport (RJCH)
Time Latitude Longitude Altitude Speed Heading
2026-04-24 20:40 35.54591 139.78440 31 ft 0 kts 92°
2026-04-24 20:41 35.54591 139.78435 31 ft 3 kts 91°
2026-04-24 20:41 35.54591 139.78402 31 ft 4 kts 88°
2026-04-24 20:41 35.54590 139.78369 31 ft 4 kts 88°
2026-04-24 20:42 35.54590 139.78342 31 ft 4 kts 81°
2026-04-24 20:42 35.54581 139.78315 31 ft 4 kts 30°
2026-04-24 20:42 35.54559 139.78312 31 ft 3 kts 330°
2026-04-24 20:42 35.54536 139.78328 31 ft 4 kts 330°
2026-04-24 20:43 35.54522 139.78338 31 ft 0 kts 330°
2026-04-24 20:47 35.54929 139.76149 31 ft 0 kts 35°
2026-04-24 20:47 35.54982 139.76195 31 ft 41 kts 35°
2026-04-24 20:48 35.55461 139.76604 30 ft 124 kts 34°
2026-04-24 20:48 35.56346 139.77346 323 ft 162 kts 33°
2026-04-24 20:48 35.57231 139.78064 1532 ft 150 kts 31°
2026-04-24 20:48 35.58124 139.78889 2139 ft 176 kts 47°
2026-04-24 20:49 35.58913 139.80167 2677 ft 198 kts 54°
2026-04-24 20:49 35.59753 139.81571 3386 ft 213 kts 52°
2026-04-24 20:49 35.60665 139.83124 3985 ft 234 kts 59°
2026-04-24 20:49 35.61091 139.85092 4819 ft 245 kts 85°
2026-04-24 20:50 35.61080 139.87241 5651 ft 257 kts 89°
2026-04-24 20:50 35.61020 139.89473 6520 ft 267 kts 89°
2026-04-24 20:50 35.61058 139.91784 7426 ft 273 kts 80°
2026-04-24 20:50 35.61702 139.93969 8384 ft 275 kts 54°
2026-04-24 20:51 35.63060 139.95583 9368 ft 276 kts 28°
2026-04-24 20:51 35.64885 139.96327 10326 ft 280 kts
2026-04-24 20:51 35.66891 139.96521 10875 ft 302 kts 360°
2026-04-24 20:51 35.69074 139.96617 11476 ft 321 kts 359°
2026-04-24 20:52 35.71343 139.96732 12340 ft 330 kts 360°
2026-04-24 20:52 35.73650 139.96632 13209 ft 334 kts 347°
2026-04-24 20:52 35.75867 139.95822 14096 ft 337 kts 336°
2026-04-24 20:52 35.78071 139.94777 14754 ft 340 kts 335°
2026-04-24 20:53 35.80281 139.93728 15116 ft 342 kts 335°
2026-04-24 20:53 35.82514 139.92672 15215 ft 344 kts 335°
2026-04-24 20:53 35.84746 139.91620 15209 ft 345 kts 335°
2026-04-24 20:53 35.86993 139.90562 15203 ft 345 kts 335°
2026-04-24 20:54 35.89266 139.89491 15202 ft 345 kts 335°
2026-04-24 20:54 35.91482 139.88451 15209 ft 346 kts 335°
2026-04-24 20:54 35.93738 139.87396 15512 ft 348 kts 335°
2026-04-24 20:54 35.96020 139.86333 16325 ft 351 kts 336°
2026-04-24 20:55 35.98457 139.85668 17254 ft 362 kts 351°
2026-04-24 20:55 36.00969 139.85976 18081 ft 377 kts 10°
2026-04-24 20:55 36.03514 139.87046 18840 ft 388 kts 15°
2026-04-24 20:55 36.06027 139.88249 19566 ft 395 kts 15°
2026-04-24 20:56 36.08645 139.89502 20315 ft 402 kts 15°
2026-04-24 20:56 36.11246 139.90736 21023 ft 409 kts 15°
2026-04-24 20:56 36.13923 139.91998 21721 ft 416 kts 15°
2026-04-24 20:56 36.16650 139.93282 22410 ft 422 kts 15°
2026-04-24 20:57 36.19454 139.94398 23040 ft 423 kts
2026-04-24 20:57 36.22359 139.94803 23687 ft 419 kts 353°
2026-04-24 20:57 36.25276 139.94751 24313 ft 422 kts 351°
2026-04-24 20:57 36.28227 139.94653 24979 ft 427 kts 351°
2026-04-24 20:58 36.31225 139.94561 25622 ft 432 kts 350°
2026-04-24 20:58 36.34243 139.94471 26280 ft 436 kts 349°
2026-04-24 20:58 36.37285 139.94382 26918 ft 440 kts 349°
2026-04-24 20:58 36.40349 139.94293 27529 ft 444 kts 348°
2026-04-24 20:59 36.43451 139.94207 28170 ft 447 kts 348°
2026-04-24 20:59 36.46574 139.94133 28734 ft 452 kts 348°
2026-04-24 20:59 36.49737 139.94083 29335 ft 455 kts 348°
2026-04-24 20:59 36.52924 139.94061 29864 ft 460 kts 348°
2026-04-24 21:00 36.55043 139.94059 30206 ft 462 kts 348°
2026-04-24 21:00 36.59369 139.94077 30806 ft 467 kts 348°
2026-04-24 21:00 36.62638 139.94099 31288 ft 471 kts 348°
2026-04-24 21:00 36.65918 139.94134 31824 ft 473 kts 348°
2026-04-24 21:01 36.69231 139.94182 32255 ft 477 kts 348°
2026-04-24 21:01 36.72531 139.94236 32666 ft 481 kts 348°
2026-04-24 21:01 36.75900 139.94297 33096 ft 484 kts 348°
2026-04-24 21:01 36.79220 139.94352 33548 ft 485 kts 348°
2026-04-24 21:02 36.82675 139.94553 33921 ft 499 kts 354°
2026-04-24 21:02 36.86144 139.95189 34265 ft 510 kts 358°
2026-04-24 21:02 36.89640 139.96072 34605 ft 517 kts
2026-04-24 21:02 36.93167 139.97093 34890 ft 523 kts
2026-04-24 21:03 36.96724 139.98172 35282 ft 524 kts
2026-04-24 21:03 37.00250 139.99252 35745 ft 523 kts
2026-04-24 21:03 37.03760 140.00311 36090 ft 524 kts
2026-04-24 21:03 37.07308 140.01344 36419 ft 524 kts
2026-04-24 21:04 37.10890 140.02295 36696 ft 525 kts
2026-04-24 21:04 37.14475 140.03202 37066 ft 524 kts 360°
2026-04-24 21:04 37.18037 140.04095 37521 ft 522 kts
2026-04-24 21:04 37.21590 140.04989 37929 ft 520 kts
2026-04-24 21:05 37.25122 140.05888 38302 ft 519 kts
2026-04-24 21:05 37.28672 140.06798 38634 ft 519 kts
2026-04-24 21:05 37.32211 140.07710 38886 ft 521 kts
2026-04-24 21:05 37.35772 140.08631 39142 ft 522 kts
2026-04-24 21:06 37.39317 140.09553 39464 ft 521 kts
2026-04-24 21:06 37.42870 140.10481 39809 ft 520 kts
2026-04-24 21:06 37.46407 140.11407 40127 ft 519 kts
2026-04-24 21:06 37.49935 140.12328 40376 ft 519 kts
2026-04-24 21:07 37.53464 140.13251 40676 ft 518 kts
2026-04-24 21:07 37.56994 140.14170 40956 ft 517 kts
2026-04-24 21:07 37.60520 140.15091 41259 ft 516 kts
2026-04-24 21:07 37.63999 140.16002 41356 ft 519 kts
2026-04-24 21:08 37.69954 140.17553 41294 ft 526 kts
2026-04-24 21:08 37.77993 140.19659 41217 ft 527 kts
2026-04-24 21:09 37.84904 140.21477 41222 ft 528 kts
2026-04-24 21:09 37.91952 140.23335 41225 ft 528 kts
2026-04-24 21:10 37.97969 140.24922 41226 ft 528 kts
2026-04-24 21:10 38.05010 140.26782 41227 ft 528 kts
2026-04-24 21:11 38.12244 140.28699 41229 ft 528 kts
2026-04-24 21:11 38.19427 140.30607 41228 ft 527 kts
2026-04-24 21:12 38.26597 140.32513 41229 ft 526 kts
2026-04-24 21:12 38.33729 140.34411 41229 ft 526 kts
2026-04-24 21:13 38.40904 140.36040 41231 ft 519 kts 356°
2026-04-24 21:13 38.48047 140.37140 41229 ft 517 kts 356°
2026-04-24 21:14 38.55201 140.38170 41228 ft 517 kts 355°
2026-04-24 21:14 38.62330 140.39198 41229 ft 515 kts 355°
2026-04-24 21:15 38.69462 140.40234 41230 ft 515 kts 356°
2026-04-24 21:15 38.76593 140.41276 41228 ft 515 kts 355°
2026-04-24 21:16 38.83707 140.42321 41229 ft 514 kts 356°
2026-04-24 21:16 38.90585 140.43335 41226 ft 513 kts 356°
2026-04-24 21:17 38.97678 140.44377 41238 ft 513 kts 356°
2026-04-24 21:17 39.04770 140.45418 41230 ft 513 kts 356°
2026-04-24 21:18 39.06129 140.45618 41229 ft 513 kts 356°
2026-04-24 21:18 39.13128 140.46652 41229 ft 512 kts 356°
2026-04-24 21:19 39.19927 140.47658 41229 ft 511 kts 356°
2026-04-24 21:19 39.26995 140.48704 41229 ft 511 kts 356°
2026-04-24 21:20 39.37604 140.50280 41229 ft 511 kts 356°
2026-04-24 21:21 39.44651 140.51331 41240 ft 510 kts 356°
2026-04-24 21:21 39.48168 140.51857 41004 ft 507 kts 356°
2026-04-24 21:21 39.51663 140.52382 40765 ft 505 kts 356°
2026-04-24 21:21 39.55113 140.52900 40516 ft 504 kts 356°
2026-04-24 21:22 39.58623 140.53426 39963 ft 501 kts 356°
2026-04-24 21:22 39.62052 140.53942 39350 ft 499 kts 356°
2026-04-24 21:22 39.65489 140.54456 38688 ft 498 kts 356°
2026-04-24 21:22 39.68940 140.54973 38013 ft 497 kts 356°
2026-04-24 21:23 39.72416 140.55497 37302 ft 496 kts 356°
2026-04-24 21:23 39.75786 140.55996 36612 ft 495 kts 357°
2026-04-24 21:23 39.79205 140.56490 35880 ft 494 kts 357°
2026-04-24 21:23 39.82623 140.56980 35104 ft 493 kts 358°
2026-04-24 21:24 39.86031 140.57469 34283 ft 494 kts 358°
2026-04-24 21:24 39.89460 140.57963 33434 ft 495 kts 358°
2026-04-24 21:24 39.92869 140.58461 32832 ft 490 kts 359°
2026-04-24 21:24 39.96246 140.58962 32238 ft 486 kts 359°
2026-04-24 21:25 39.99578 140.59462 31636 ft 480 kts 359°
2026-04-24 21:25 40.02888 140.59953 31040 ft 476 kts 359°
2026-04-24 21:25 40.06158 140.60435 30444 ft 471 kts 359°
2026-04-24 21:25 40.09396 140.60913 29853 ft 465 kts 359°
2026-04-24 21:26 40.12591 140.61383 29275 ft 460 kts 359°
2026-04-24 21:26 40.15747 140.61846 28703 ft 455 kts 359°
2026-04-24 21:26 40.18879 140.62306 28124 ft 450 kts 359°
2026-04-24 21:26 40.21973 140.62762 27550 ft 445 kts 359°
2026-04-24 21:27 40.25024 140.63214 26985 ft 440 kts 359°
2026-04-24 21:27 40.28055 140.63662 26406 ft 435 kts 360°
2026-04-24 21:27 40.31039 140.64111 25846 ft 430 kts
2026-04-24 21:27 40.33994 140.64559 25269 ft 424 kts
2026-04-24 21:28 40.36901 140.64993 24708 ft 419 kts
2026-04-24 21:28 40.39789 140.65421 24135 ft 414 kts
2026-04-24 21:28 40.42629 140.65843 23580 ft 408 kts
2026-04-24 21:28 40.45410 140.66261 23305 ft 396 kts
2026-04-24 21:29 40.48130 140.66671 23055 ft 392 kts
2026-04-24 21:29 40.50827 140.67075 22800 ft 391 kts
2026-04-24 21:29 40.53536 140.67478 22549 ft 390 kts
2026-04-24 21:29 40.56222 140.67877 22298 ft 388 kts
2026-04-24 21:30 40.58902 140.68275 22047 ft 387 kts
2026-04-24 21:30 40.61576 140.68674 21796 ft 385 kts
2026-04-24 21:30 40.64230 140.69071 21545 ft 383 kts
2026-04-24 21:30 40.66875 140.69468 21299 ft 381 kts
2026-04-24 21:31 40.69500 140.69863 21045 ft 380 kts
2026-04-24 21:31 40.72122 140.70259 20790 ft 378 kts
2026-04-24 21:31 40.74722 140.70653 20544 ft 376 kts
2026-04-24 21:31 40.77317 140.71016 20299 ft 374 kts
2026-04-24 21:32 40.79906 140.71326 20046 ft 372 kts
2026-04-24 21:32 40.82477 140.71614 19792 ft 370 kts
2026-04-24 21:32 40.85035 140.71900 19547 ft 369 kts
2026-04-24 21:32 40.87584 140.72191 19294 ft 367 kts
2026-04-24 21:33 40.90119 140.72489 19168 ft 365 kts
2026-04-24 21:33 40.91797 140.72688 19165 ft 365 kts
2026-04-24 21:33 40.95175 140.73095 19170 ft 364 kts
2026-04-24 21:33 40.97704 140.73402 19170 ft 364 kts
2026-04-24 21:34 41.00225 140.73709 19170 ft 364 kts
2026-04-24 21:34 41.02743 140.74023 19170 ft 364 kts
2026-04-24 21:34 41.05266 140.74333 19171 ft 364 kts
2026-04-24 21:34 41.07789 140.74639 19178 ft 364 kts
2026-04-24 21:35 41.10309 140.74944 19180 ft 364 kts
2026-04-24 21:35 41.12825 140.75247 19180 ft 364 kts
2026-04-24 21:35 41.15336 140.75552 19179 ft 364 kts
2026-04-24 21:35 41.17860 140.75863 19180 ft 364 kts
2026-04-24 21:36 41.20382 140.76173 19179 ft 364 kts
2026-04-24 21:36 41.22891 140.76481 19180 ft 364 kts
2026-04-24 21:36 41.25418 140.76791 19180 ft 364 kts
2026-04-24 21:36 41.27934 140.77099 19180 ft 363 kts
2026-04-24 21:37 41.30450 140.77407 19180 ft 363 kts
2026-04-24 21:37 41.32968 140.77716 19189 ft 363 kts
2026-04-24 21:37 41.35448 140.78022 19186 ft 363 kts
2026-04-24 21:37 41.37959 140.78332 19188 ft 363 kts
2026-04-24 21:38 41.40480 140.78633 19188 ft 363 kts 360°
2026-04-24 21:38 41.42975 140.78585 19197 ft 357 kts 349°
2026-04-24 21:38 41.45350 140.77744 19192 ft 352 kts 335°
2026-04-24 21:38 41.47482 140.76178 19187 ft 349 kts 325°
2026-04-24 21:39 41.49491 140.74340 19187 ft 349 kts 324°
2026-04-24 21:39 41.51475 140.72477 19184 ft 349 kts 322°
2026-04-24 21:39 41.53291 140.70388 18784 ft 343 kts 316°
2026-04-24 21:39 41.55024 140.68152 17841 ft 349 kts 315°
2026-04-24 21:40 41.56757 140.65860 16995 ft 352 kts 315°
2026-04-24 21:40 41.58484 140.63554 16349 ft 349 kts 315°
2026-04-24 21:40 41.60181 140.61279 15768 ft 344 kts 315°
2026-04-24 21:40 41.61859 140.59026 15190 ft 339 kts 315°
2026-04-24 21:41 41.63504 140.56811 14644 ft 334 kts 315°
2026-04-24 21:41 41.65130 140.54618 14068 ft 329 kts 315°
2026-04-24 21:41 41.66726 140.52463 13530 ft 325 kts 315°
2026-04-24 21:41 41.68304 140.50330 12980 ft 320 kts 315°
2026-04-24 21:42 41.69857 140.48230 12438 ft 316 kts 315°
2026-04-24 21:42 41.71390 140.46155 11912 ft 311 kts 315°
2026-04-24 21:42 41.72901 140.44108 11370 ft 307 kts 315°
2026-04-24 21:42 41.74376 140.42110 11156 ft 294 kts 315°
2026-04-24 21:43 41.75787 140.40197 10926 ft 282 kts 315°
2026-04-24 21:43 41.77131 140.38372 10762 ft 270 kts 315°
2026-04-24 21:43 41.78418 140.36623 10620 ft 257 kts 315°
2026-04-24 21:43 41.79649 140.34950 10493 ft 249 kts 315°
2026-04-24 21:44 41.80871 140.33290 10189 ft 249 kts 315°
2026-04-24 21:44 41.82089 140.31633 9856 ft 251 kts 315°
2026-04-24 21:44 41.83350 140.29915 9660 ft 267 kts 315°
2026-04-24 21:44 41.84673 140.28114 9516 ft 269 kts 315°
2026-04-24 21:45 41.85985 140.26327 9021 ft 271 kts 315°
2026-04-24 21:45 41.87311 140.24522 8495 ft 273 kts 315°
2026-04-24 21:45 41.88699 140.22830 8083 ft 271 kts 323°
2026-04-24 21:45 41.90373 140.21622 7711 ft 270 kts 340°
2026-04-24 21:46 41.92178 140.21143 7334 ft 270 kts 356°
2026-04-24 21:46 41.94053 140.21393 6955 ft 270 kts 13°
2026-04-24 21:46 41.95786 140.22363 6576 ft 271 kts 30°
2026-04-24 21:46 41.97231 140.23965 6197 ft 271 kts 47°
2026-04-24 21:47 41.98273 140.26069 5823 ft 271 kts 64°
2026-04-24 21:47 41.98692 140.27649 5562 ft 271 kts 75°
2026-04-24 21:47 41.98808 140.31010 5167 ft 270 kts 98°
2026-04-24 21:47 41.98268 140.33413 4880 ft 268 kts 115°
2026-04-24 21:48 41.97249 140.35485 4599 ft 266 kts 132°
2026-04-24 21:48 41.95854 140.37054 4410 ft 257 kts 149°
2026-04-24 21:48 41.94264 140.38004 4268 ft 244 kts 165°
2026-04-24 21:48 41.92738 140.38410 4181 ft 232 kts 171°
2026-04-24 21:49 41.91193 140.38813 4095 ft 221 kts 166°
2026-04-24 21:49 41.89784 140.39484 3999 ft 209 kts 155°
2026-04-24 21:49 41.88576 140.40419 3914 ft 199 kts 145°
2026-04-24 21:49 41.87540 140.41613 3810 ft 189 kts 132°
2026-04-24 21:50 41.86800 140.42997 3730 ft 177 kts 120°
2026-04-24 21:50 41.86274 140.44441 3600 ft 168 kts 113°
2026-04-24 21:50 41.85860 140.45897 3374 ft 167 kts 110°
2026-04-24 21:50 41.85495 140.47333 3213 ft 158 kts 109°
2026-04-24 21:51 41.85166 140.48700 3038 ft 151 kts 108°
2026-04-24 21:51 41.84850 140.50006 2876 ft 143 kts 109°
2026-04-24 21:51 41.84546 140.51248 2646 ft 138 kts 109°
2026-04-24 21:51 41.84247 140.52457 2392 ft 135 kts 108°
2026-04-24 21:52 41.83953 140.53643 2151 ft 131 kts 108°
2026-04-24 21:52 41.83673 140.54781 2001 ft 128 kts 108°
2026-04-24 21:52 41.83394 140.55924 1834 ft 129 kts 108°
2026-04-24 21:52 41.83211 140.56676 1719 ft 129 kts 108°
2026-04-24 21:53 41.82841 140.58201 1478 ft 128 kts 108°
2026-04-24 21:53 41.82659 140.58955 1370 ft 128 kts 108°
2026-04-24 21:53 41.82293 140.60468 1138 ft 128 kts 108°
2026-04-24 21:53 41.82111 140.61219 1032 ft 127 kts 108°
2026-04-24 21:54 41.81841 140.62330 1008 ft 124 kts 105°
2026-04-24 21:54 41.81576 140.63429 1002 ft 124 kts 106°
2026-04-24 21:54 41.81310 140.64529 1117 ft 125 kts 105°
2026-04-24 21:54 41.81037 140.65645 1545 ft 128 kts 105°
2026-04-24 21:55 41.80760 140.66790 1900 ft 129 kts 107°
2026-04-24 21:55 41.80483 140.67934 1992 ft 129 kts 107°
2026-04-24 21:55 41.80203 140.69086 1919 ft 132 kts 107°
2026-04-24 21:55 41.79920 140.70250 1709 ft 129 kts 107°
2026-04-24 21:56 41.79645 140.71382 1529 ft 127 kts 106°
2026-04-24 21:56 41.79370 140.72509 1359 ft 127 kts 106°
2026-04-24 21:56 41.79100 140.73626 1187 ft 126 kts 105°
2026-04-24 21:56 41.78828 140.74745 1018 ft 125 kts 105°
2026-04-24 21:57 41.78559 140.75852 840 ft 124 kts 106°
2026-04-24 21:57 41.78291 140.76957 684 ft 125 kts 105°
2026-04-24 21:57 41.78024 140.78059 517 ft 124 kts 105°
2026-04-24 21:57 41.77756 140.79159 360 ft 125 kts 105°
2026-04-24 21:58 41.77488 140.80261 194 ft 124 kts 106°
2026-04-24 21:58 41.77229 140.81333 125 ft 113 kts 108°
2026-04-24 21:58 41.77037 140.82119 137 ft 50 kts 108°
2026-04-24 21:58 41.77004 140.82255 139 ft 2 kts 108°
2026-04-24 21:59 41.76994 140.82294 139 ft 7 kts 108°
2026-04-24 21:59 41.76974 140.82380 142 ft 12 kts 108°
2026-04-24 21:59 41.76947 140.82494 145 ft 14 kts 107°
2026-04-24 21:59 41.77523 140.81453 123 ft 0 kts 18°